TimeEST,TemperatureF,Dew PointF,Humidity,Sea Level PressureIn,VisibilityMPH,Wind Direction,Wind SpeedMPH,Gust SpeedMPH,PrecipitationIn,Events,Conditions,WindDirDegrees,DateUTC
12:15 AM,23.0,21.2,93,30.17,10.0,Calm,Calm,-,N/A,,Clear,0,2013-01-05 05:15:00
12:35 AM,23.0,21.2,93,30.17,10.0,Calm,Calm,-,N/A,,Clear,0,2013-01-05 05:35:00
12:55 AM,21.2,21.2,100,30.17,10.0,SSE,3.5,-,N/A,,Clear,150,2013-01-05 05:55:00
1:15 AM,21.2,21.2,100,30.17,10.0,Calm,Calm,-,N/A,,Clear,0,2013-01-05 06:15:00
1:35 AM,21.2,21.2,100,30.18,10.0,Calm,Calm,-,N/A,,Clear,0,2013-01-05 06:35:00
1:55 AM,21.2,21.2,100,30.19,10.0,Calm,Calm,-,N/A,,Clear,0,2013-01-05 06:55:00
2:15 AM,21.2,19.4,93,30.20,10.0,SE,3.5,-,N/A,,Clear,140,2013-01-05 07:15:00
2:35 AM,21.2,19.4,93,30.21,10.0,Calm,Calm,-,N/A,,Clear,0,2013-01-05 07:35:00
2:55 AM,21.2,21.2,100,30.22,10.0,SE,4.6,-,N/A,,Clear,140,2013-01-05 07:55:00
3:15 AM,21.2,19.4,93,30.23,10.0,Calm,Calm,-,N/A,,Clear,0,2013-01-05 08:15:00
3:35 AM,21.2,19.4,93,30.23,10.0,West,4.6,-,N/A,,Clear,270,2013-01-05 08:35:00
3:55 AM,21.2,19.4,93,30.25,10.0,ESE,4.6,-,N/A,,Clear,120,2013-01-05 08:55:00
4:15 AM,21.2,21.2,100,30.25,10.0,Calm,Calm,-,N/A,,Clear,0,2013-01-05 09:15:00
4:35 AM,21.2,21.2,100,30.25,10.0,SSE,4.6,-,N/A,,Clear,150,2013-01-05 09:35:00
4:55 AM,24.8,23.0,93,30.25,10.0,NNW,6.9,-,N/A,,Clear,330,2013-01-05 09:55:00
5:15 AM,28.4,23.0,80,30.26,10.0,South,4.6,-,N/A,,Clear,170,2013-01-05 10:15:00
5:35 AM,26.6,21.2,80,30.28,10.0,Calm,Calm,-,N/A,,Clear,0,2013-01-05 10:35:00
5:55 AM,24.8,19.4,80,30.29,10.0,SSE,3.5,-,N/A,,Clear,150,2013-01-05 10:55:00
6:15 AM,23.0,19.4,86,30.31,10.0,Calm,Calm,-,N/A,,Clear,0,2013-01-05 11:15:00
7:45 AM,21.2,19.4,93,30.03,10.0,Calm,Calm,-,N/A,,Clear,0,2013-01-05 12:45:00
8:50 AM,35.6,28.4,75,30.36,10.0,NNE,5.8,-,N/A,,Clear,20,2013-01-05 13:50:00
9:45 AM,37.4,24.8,60,30.37,10.0,North,9.2,-,N/A,,Clear,10,2013-01-05 14:45:00
11:55 AM,41.0,21.2,45,30.39,10.0,North,5.8,-,N/A,,Clear,350,2013-01-05 16:55:00
2:50 PM,44.6,21.2,39,30.30,10.0,South,4.6,-,N/A,,Clear,170,2013-01-05 19:50:00
3:45 PM,44.6,21.2,39,30.29,10.0,Calm,Calm,-,N/A,,Clear,0,2013-01-05 20:45:00
4:45 PM,42.8,21.2,42,30.28,10.0,Calm,Calm,-,N/A,,Clear,0,2013-01-05 21:45:00
5:45 PM,35.6,26.6,70,30.28,10.0,SSE,3.5,-,N/A,,Clear,160,2013-01-05 22:45:00
6:45 PM,33.8,26.6,75,30.26,10.0,Calm,Calm,-,N/A,,Clear,0,2013-01-05 23:45:00
7:50 PM,33.8,28.4,81,30.27,10.0,Calm,Calm,-,N/A,,Clear,0,2013-01-06 00:50:00
8:45 PM,33.8,26.6,75,30.25,10.0,Calm,Calm,-,N/A,,Scattered Clouds,0,2013-01-06 01:45:00
9:15 PM,39.2,26.6,61,30.24,10.0,SSE,4.6,-,N/A,,Partly Cloudy,160,2013-01-06 02:15:00
9:35 PM,39.2,26.6,61,30.23,10.0,SSE,5.8,-,N/A,,Scattered Clouds,160,2013-01-06 02:35:00
9:55 PM,39.2,26.6,61,30.23,10.0,SSE,5.8,-,N/A,,Mostly Cloudy,160,2013-01-06 02:55:00
10:15 PM,39.2,26.6,61,30.23,10.0,South,5.8,-,N/A,,Overcast,170,2013-01-06 03:15:00
10:35 PM,39.2,26.6,61,30.24,10.0,South,5.8,-,N/A,,Overcast,180,2013-01-06 03:35:00
10:55 PM,37.4,30.2,75,30.22,10.0,South,4.6,-,N/A,,Overcast,180,2013-01-06 03:55:00
11:15 PM,37.4,32.0,81,30.21,10.0,South,8.1,-,N/A,,Overcast,170,2013-01-06 04:15:00
11:35 PM,37.4,32.0,81,30.18,10.0,SSE,6.9,-,N/A,,Overcast,150,2013-01-06 04:35:00
11:55 PM,39.2,32.0,75,30.19,10.0,South,4.6,-,N/A,,Overcast,170,2013-01-06 04:55:00